SCP
0 0 0 0 0 1 0 1 1 2 4 6 7 5 4 3 3 2 1 2 1 0 0 0 0 0 0 0 0 0 0 0
0 0 0 0 0 0 1 1 2 3 3 4 6 5 3 3 3 1 1 1 1 1 0 0 0 0 0 0 0 0 0 0
0 0 0 0 0 0 1 0 1 2 3 3 4 4 4 4 4 3 2 1 2 1 0 0 0 0 0 0 0 0 0 0
0 0 0 0 0 0 1 1 1 1 2 4 4 4 4 4 3 3 3 2 2 1 0 0 0 0 0 0 0 0 0 0
0 0 0 0 0 0 0 2 1 2 3 4 3 4 3 3 2 3 4 3 2 2 1 0 0 0 0 0 0 0 0 0
0 0 0 0 0 0 0 0 2 2 3 3 4 3 4 4 4 3 2 3 3 3 2 0 0 0 0 0 0 0 0 0
0 0 0 0 0 0 0 0 0 0 1 1 1 3 3 3 3 3 3 3 3 2 2 1 0 0 0 0 0 0 0 0
0 0 0 0 0 0 0 0 0 0 0 0 1 1 1 1 3 3 3 3 3 2 2 2 0 0 0 0 0 0 0 0
0 0 0 0 0 0 0 0 0 0 0 0 1 2 2 2 2 3 2 2 2 2 2 2 1 0 0 0 0 0 0 0
0 0 0 0 0 0 0 0 0 0 0 0 0 0 1 2 1 1 2 2 2 2 2 2 1 1 0 0 0 0 0 0
0 0 0 0 0 0 0 0 0 0 0 0 0 0 0 0 1 1 1 1 1 1 1 2 1 0 0 0 0 0 0 0
0 0 0 0 0 0 0 0 0 0 0 0 0 0 0 0 0 0 0 0 0 0 0 1 1 0 0 0 0 0 0 0
0 0 0 0 0 0 0 0 0 0 0 0 0 0 0 0 0 0 0 0 0 0 0 0 0 0 0 0 0 0 0 0
0 0 0 0 0 0 0 0 0 0 0 0 0 0 0 0 0 -0 0 0 0 0 0 0 0 0 0 0 0 0 0 0
0 -0 0 0 -0 -0 -0 0 0 0 0 0 0 0 0 0 0 0 0 0 0 0 0 0 0 0 0 0 0 0 0 0
-0 -0 -0 -0 0 0 0 0 0 -0 0 0 0 0 0 0 0 0 0 0 0 0 0 0 0 0 0 0 0 0 0 0
0 0 0 0 0 0 0 0 0 0 0 0 0 0 0 0 0 0 0 0 0 0 0 0 0 0 0 0 0 0 0 0
0 0 0 0 0 0 0 0 0 0 0 0 0 0 0 0 0 0 0 0 0 0 0 0 0 0 0 0 0 0 0 0
0 0 0 0 0 0 0 -0 0 0 0 0 0 0 0 0 0 0 0 0 0 0 0 0 0 0 0 0 0 0 0 0
Wind_Speed_500mb
63 55 51 65 69 78 84 80 89 87 83 94 89 82 78 77 82 86 85 89 93 90 86 83 77 73 74 73 71 73 71 64
51 55 47 64 69 79 79 86 93 89 92 98 102 98 97 84 82 82 84 95 96 89 87 83 79 79 79 77 73 75 71 68
69 62 68 60 72 71 80 82 90 93 93 94 93 106 98 100 92 88 88 91 104 98 92 91 88 85 83 81 80 81 76 79
72 77 73 77 75 74 77 82 89 98 95 87 91 97 104 101 99 102 95 88 93 104 102 99 94 91 90 85 88 89 92 88
73 78 61 85 80 80 78 71 83 89 93 94 93 100 105 111 118 114 107 99 94 95 105 104 100 94 96 88 91 94 97 97
86 90 71 76 82 81 83 64 76 76 85 91 93 92 99 98 102 105 109 113 102 98 99 106 106 101 101 94 89 103 104 102
34 38 51 47 47 44 44 45 44 66 84 78 81 82 78 79 84 93 95 100 113 106 109 112 112 107 106 100 94 93 109 110
73 72 61 51 41 34 28 24 20 22 31 49 72 73 78 82 89 92 98 91 91 96 98 106 111 114 115 111 103 103 106 113
73 67 59 49 41 37 30 21 14 30 27 27 39 37 68 77 80 84 86 92 97 90 90 98 107 110 115 115 112 108 107 109
69 59 54 44 34 28 23 21 21 15 7 20 22 35 51 60 74 84 85 88 90 97 89 97 100 112 112 119 116 112 112 112
70 66 60 52 38 24 12 10 12 17 17 18 15 23 25 35 42 58 71 76 81 82 82 87 100 102 112 119 115 116 117 118
50 48 45 40 36 33 28 26 20 15 17 11 5 11 9 14 21 24 41 72 73 76 70 75 87 92 103 120 113 115 119 121
33 34 28 25 22 21 22 23 23 19 19 19 16 7 7 13 11 25 23 20 6 76 64 77 78 87 92 104 119 115 116 115
21 25 25 26 26 24 15 10 12 16 19 20 19 19 16 9 13 18 22 40 50 44 16 76 80 77 85 93 99 107 113 106
3 4 4 6 17 22 20 25 22 19 18 19 20 18 17 20 25 22 19 23 27 32 33 37 55 84 72 81 100 112 107 105
13 9 4 6 8 19 19 20 22 22 27 21 21 22 22 20 21 30 32 31 32 33 35 43 49 53 86 104 106 114 120 109
19 3 6 9 3 8 11 19 21 29 27 22 20 21 27 28 30 28 35 39 42 38 39 38 43 54 49 87 89 89 84 88
12 2 7 13 17 21 17 21 23 32 35 34 24 21 28 27 30 33 37 42 40 43 39 41 42 46 53 53 69 94 87 81
16 13 21 24 21 25 27 27 31 38 37 40 37 36 36 37 31 29 31 38 44 45 43 45 49 46 47 53 58 64 87 91
Wind_Direction_500mb
250 236 231 239 220 213 228 224 216 211 205 205 204 204 207 210 214 216 211 212 213 217 219 220 218 213 212 209 206 200 202 198
250 234 239 226 218 213 215 221 212 208 209 201 202 204 204 206 213 215 213 211 209 210 216 221 219 217 216 211 205 199 196 200
249 247 233 224 215 210 213 223 215 213 216 209 210 205 207 207 209 214 216 208 210 208 217 221 222 219 216 211 207 197 199 200
243 248 245 221 212 208 214 217 219 214 214 217 210 206 206 209 212 216 215 214 211 213 217 220 220 225 221 213 210 206 200 199
241 234 240 217 210 208 209 209 214 220 216 216 217 204 203 207 211 214 217 219 219 218 218 221 222 227 221 221 216 211 208 200
236 232 230 216 205 205 208 200 210 219 220 220 217 217 211 209 211 217 218 218 218 220 219 223 223 226 227 223 220 213 213 213
132 145 155 136 132 150 167 169 169 203 216 223 222 222 222 218 218 217 220 219 215 218 224 221 226 227 227 228 228 225 218 218
90 101 112 108 109 120 141 167 169 176 183 206 225 226 216 227 223 221 221 219 215 221 222 224 226 228 230 233 231 229 224 222
86 88 87 94 105 110 115 120 134 208 208 218 223 217 225 227 229 227 228 233 233 227 232 228 226 229 231 234 236 232 224 226
75 72 74 77 87 90 114 102 91 99 167 228 236 226 228 227 228 233 232 233 237 236 238 237 231 230 232 233 233 232 230 229
72 72 70 67 66 66 54 66 70 46 51 80 149 192 199 214 223 238 245 250 244 237 241 243 232 232 233 236 235 235 235 232
60 67 72 71 70 65 59 44 36 26 10 13 85 138 104 172 188 216 245 233 242 235 237 241 238 237 237 237 239 239 238 236
29 30 27 19 31 39 37 40 28 24 15 16 13 347 274 238 263 269 252 224 284 220 231 233 235 236 237 239 236 241 241 241
24 33 25 10 358 13 1 349 349 343 345 357 4 349 343 322 270 293 295 265 273 275 298 226 228 227 232 235 238 240 242 242
157 119 142 57 342 12 12 15 9 1 330 317 319 337 346 326 313 306 309 297 282 269 273 264 245 235 232 237 240 236 237 240
188 213 43 129 359 4 15 345 357 357 342 353 332 315 298 315 315 307 303 305 303 291 273 266 256 254 243 244 241 238 234 237
142 167 19 88 348 332 304 316 343 330 319 331 329 331 322 320 291 294 298 303 307 301 289 275 262 247 255 248 248 239 234 233
129 3 6 334 322 326 311 325 328 327 324 329 318 314 311 310 303 303 296 290 296 300 296 288 278 265 251 248 253 250 256 249
37 3 322 317 319 322 305 288 304 311 308 307 311 310 304 307 311 297 294 290 284 287 290 287 284 275 268 257 249 250 251 254
Wind_Speed_850mb
63 55 51 65 69 78 84 80 89 87 83 94 89 82 78 77 82 86 85 89 93 90 86 83 77 73 74 73 71 73 71 64
51 55 47 64 69 79 79 86 93 89 92 98 102 98 97 84 82 82 84 95 96 89 87 83 79 79 79 77 73 75 71 68
69 62 68 60 72 71 80 82 90 93 93 94 93 106 98 100 92 88 88 91 104 98 92 91 88 85 83 81 80 81 76 79
72 77 73 77 75 74 77 82 89 98 95 87 91 97 104 101 99 102 95 88 93 104 102 99 94 91 90 85 88 89 92 88
73 78 61 85 80 80 78 71 83 89 93 94 93 100 105 111 118 114 107 99 94 95 105 104 100 94 96 88 91 94 97 97
86 90 71 76 82 81 83 64 76 76 85 91 93 92 99 98 102 105 109 113 102 98 99 106 106 101 101 94 89 103 104 102
34 38 51 47 47 44 44 45 44 66 84 78 81 82 78 79 84 93 95 100 113 106 109 112 112 107 106 100 94 93 109 110
73 72 61 51 41 34 28 24 20 22 31 49 72 73 78 82 89 92 98 91 91 96 98 106 111 114 115 111 103 103 106 113
73 67 59 49 41 37 30 21 14 30 27 27 39 37 68 77 80 84 86 92 97 90 90 98 107 110 115 115 112 108 107 109
69 59 54 44 34 28 23 21 21 15 7 20 22 35 51 60 74 84 85 88 90 97 89 97 100 112 112 119 116 112 112 112
70 66 60 52 38 24 12 10 12 17 17 18 15 23 25 35 42 58 71 76 81 82 82 87 100 102 112 119 115 116 117 118
50 48 45 40 36 33 28 26 20 15 17 11 5 11 9 14 21 24 41 72 73 76 70 75 87 92 103 120 113 115 119 121
33 34 28 25 22 21 22 23 23 19 19 19 16 7 7 13 11 25 23 20 6 76 64 77 78 87 92 104 119 115 116 115
21 25 25 26 26 24 15 10 12 16 19 20 19 19 16 9 13 18 22 40 50 44 16 76 80 77 85 93 99 107 113 106
3 4 4 6 17 22 20 25 22 19 18 19 20 18 17 20 25 22 19 23 27 32 33 37 55 84 72 81 100 112 107 105
13 9 4 6 8 19 19 20 22 22 27 21 21 22 22 20 21 30 32 31 32 33 35 43 49 53 86 104 106 114 120 109
19 3 6 9 3 8 11 19 21 29 27 22 20 21 27 28 30 28 35 39 42 38 39 38 43 54 49 87 89 89 84 88
12 2 7 13 17 21 17 21 23 32 35 34 24 21 28 27 30 33 37 42 40 43 39 41 42 46 53 53 69 94 87 81
16 13 21 24 21 25 27 27 31 38 37 40 37 36 36 37 31 29 31 38 44 45 43 45 49 46 47 53 58 64 87 91
Wind_Direction_850mb
250 236 231 239 220 213 228 224 216 211 205 205 204 204 207 210 214 216 211 212 213 217 219 220 218 213 212 209 206 200 202 198
250 234 239 226 218 213 215 221 212 208 209 201 202 204 204 206 213 215 213 211 209 210 216 221 219 217 216 211 205 199 196 200
249 247 233 224 215 210 213 223 215 213 216 209 210 205 207 207 209 214 216 208 210 208 217 221 222 219 216 211 207 197 199 200
243 248 245 221 212 208 214 217 219 214 214 217 210 206 206 209 212 216 215 214 211 213 217 220 220 225 221 213 210 206 200 199
241 234 240 217 210 208 209 209 214 220 216 216 217 204 203 207 211 214 217 219 219 218 218 221 222 227 221 221 216 211 208 200
236 232 230 216 205 205 208 200 210 219 220 220 217 217 211 209 211 217 218 218 218 220 219 223 223 226 227 223 220 213 213 213
132 145 155 136 132 150 167 169 169 203 216 223 222 222 222 218 218 217 220 219 215 218 224 221 226 227 227 228 228 225 218 218
90 101 112 108 109 120 141 167 169 176 183 206 225 226 216 227 223 221 221 219 215 221 222 224 226 228 230 233 231 229 224 222
86 88 87 94 105 110 115 120 134 208 208 218 223 217 225 227 229 227 228 233 233 227 232 228 226 229 231 234 236 232 224 226
75 72 74 77 87 90 114 102 91 99 167 228 236 226 228 227 228 233 232 233 237 236 238 237 231 230 232 233 233 232 230 229
72 72 70 67 66 66 54 66 70 46 51 80 149 192 199 214 223 238 245 250 244 237 241 243 232 232 233 236 235 235 235 232
60 67 72 71 70 65 59 44 36 26 10 13 85 138 104 172 188 216 245 233 242 235 237 241 238 237 237 237 239 239 238 236
29 30 27 19 31 39 37 40 28 24 15 16 13 347 274 238 263 269 252 224 284 220 231 233 235 236 237 239 236 241 241 241
24 33 25 10 358 13 1 349 349 343 345 357 4 349 343 322 270 293 295 265 273 275 298 226 228 227 232 235 238 240 242 242
157 119 142 57 342 12 12 15 9 1 330 317 319 337 346 326 313 306 309 297 282 269 273 264 245 235 232 237 240 236 237 240
188 213 43 129 359 4 15 345 357 357 342 353 332 315 298 315 315 307 303 305 303 291 273 266 256 254 243 244 241 238 234 237
142 167 19 88 348 332 304 316 343 330 319 331 329 331 322 320 291 294 298 303 307 301 289 275 262 247 255 248 248 239 234 233
129 3 6 334 322 326 311 325 328 327 324 329 318 314 311 310 303 303 296 290 296 300 296 288 278 265 251 248 253 250 256 249
37 3 322 317 319 322 305 288 304 311 308 307 311 310 304 307 311 297 294 290 284 287 290 287 284 275 268 257 249 250 251 254